Weather History for LIRN - November, 2012

Change the Weather History Date:

Sunday, November 25, 2012

  Actual Average Record
Temperature  
Mean Temperature 58 °F -  
Max Temperature 66 °F 57 °F 71 °F (2002)
Min Temperature 50 °F 42 °F 32 °F (2001)
Degree Days  
Heating Degree Days 7    
Growing Degree Days 8 (Base 50)    
Moisture  
Dew Point 53 °F    
Average Humidity 89    
Maximum Humidity 100    
Minimum Humidity 68    
Precipitation  
Precipitation 0.00 in 0.17 in - ()
Sea Level Pressure  
Sea Level Pressure 30.20 in    
Wind  
Wind Speed 2 mph ()    
Max Wind Speed 5 mph    
Max Gust Speed -    
Visibility 3.5 miles    
Events Fog    
Averages and records for this station are not official NWS values.
T = Trace of Precipitation, MM = Missing Value Source: Averaged Metar Reports

Daily Weather History Graph

Daily Weather History Graph

Search for Another Location

Airport or City:

Trip Planner

Search our weather history database for the weather conditions in past years. The results will help you decide how hot, cold, wet, or windy it might be!

Date:

Astronomy

Nov. 25, 2012 Rise Set
Actual Time 7:01 AM CET 4:37 PM CET
Civil Twilight 6:31 AM CET 5:07 PM CET
Nautical Twilight 5:57 AM CET 5:41 PM CET
Astronomical Twilight 5:25 AM CET 6:14 PM CET
Moon 2:45 PM CET (11/25) 3:58 AM CET (11/25)
Length of Visible Light 10h 36m
Length of Day
9h 35m
Waxing Gibbous, 91% of the Moon is Illuminated
Nov 25
Waxing Gibbous
Nov 28
Full
Dec 6
Last Quarter
Dec 13
New
Dec 20
First Quarter

Hourly Weather History & Observations

Time (CET) Temp. Dew Point Humidity Pressure Visibility Wind Dir Wind Speed Gust Speed Precip Events Conditions
12:20 AM 51.8 °F 50.0 °F 94% 30.21 in 1.9 mi NW 2.3 mph - N/A   Mist
12:50 AM 50.0 °F 48.2 °F 94% 30.21 in 3.1 mi WNW 2.3 mph - N/A   Mist
1:20 AM 53.6 °F 53.6 °F 100% 30.21 in 3.1 mi NW 1.2 mph - N/A   Mist
1:50 AM 51.8 °F 51.8 °F 100% 30.21 in 3.1 mi Calm Calm - N/A   Scattered Clouds
2:20 AM 50.0 °F 50.0 °F 100% 30.21 in 1.2 mi North 2.3 mph - N/A Fog Patches of Fog
2:50 AM 50.0 °F 50.0 °F 100% 30.21 in 1.2 mi North 3.5 mph - N/A Fog Patches of Fog
3:20 AM 51.8 °F 50.0 °F 94% 30.21 in 0.9 mi NNW 2.3 mph - N/A   Mist
3:50 AM 51.8 °F 50.0 °F 94% 30.21 in 1.6 mi NNW 2.3 mph - N/A   Mist
4:20 AM 51.8 °F 51.8 °F 100% 30.21 in 1.6 mi North 3.5 mph - N/A   Mist
4:50 AM 51.8 °F 50.0 °F 94% 30.21 in 1.6 mi NNW 2.3 mph - N/A   Mist
5:20 AM 51.8 °F 51.8 °F 100% 30.21 in 1.6 mi NNW 2.3 mph - N/A   Mist
5:50 AM 51.8 °F 51.8 °F 100% 30.21 in 1.6 mi NNW 2.3 mph - N/A   Mist
6:20 AM 51.8 °F 50.0 °F 94% 30.21 in 3.1 mi NNE 2.3 mph - N/A   Mist
6:50 AM 51.8 °F 51.8 °F 100% 30.21 in 2.5 mi North 3.5 mph - N/A   Mist
7:20 AM 53.6 °F 51.8 °F 94% 30.21 in 2.5 mi North 3.5 mph - N/A   Scattered Clouds
8:20 AM 53.6 °F 51.8 °F 94% 30.24 in 2.5 mi North 2.3 mph - N/A   Scattered Clouds
8:50 AM 55.4 °F 53.6 °F 94% 30.21 in 3.1 mi NNE 3.5 mph - N/A   Scattered Clouds
9:20 AM 57.2 °F 53.6 °F 88% 30.24 in 3.1 mi Variable 2.3 mph - N/A   Mostly Cloudy
9:50 AM 59.0 °F 53.6 °F 82% 30.24 in 3.1 mi Variable 2.3 mph - N/A   Mostly Cloudy
10:20 AM 60.8 °F 55.4 °F 82% 30.24 in 3.1 mi North 3.5 mph - N/A   Scattered Clouds
10:50 AM 62.6 °F 57.2 °F 82% 30.21 in 3.7 mi NE 3.5 mph - N/A   Scattered Clouds
11:20 AM 62.6 °F 55.4 °F 77% 30.21 in 3.7 mi NNE 4.6 mph - N/A   Mostly Cloudy
11:50 AM 62.6 °F 55.4 °F 77% 30.21 in 3.7 mi North 3.5 mph - N/A   Mostly Cloudy
12:20 PM 64.4 °F 57.2 °F 77% 30.21 in 4.3 mi Variable 2.3 mph - N/A   Mostly Cloudy
12:50 PM 64.4 °F 57.2 °F 77% 30.18 in 4.3 mi NNW 3.5 mph - N/A   Mostly Cloudy
1:20 PM 64.4 °F 55.4 °F 73% 30.18 in 4.3 mi Variable 1.2 mph - N/A   Mostly Cloudy
1:50 PM 66.2 °F 55.4 °F 68% 30.18 in 5.0 mi Variable 1.2 mph - N/A   Mostly Cloudy
2:50 PM 64.4 °F 55.4 °F 73% 30.15 in 5.0 mi North 1.2 mph - N/A   Mostly Cloudy
3:20 PM 64.4 °F 55.4 °F 73% 30.15 in 5.0 mi Variable 2.3 mph - N/A   Mostly Cloudy
3:50 PM 62.6 °F 55.4 °F 77% 30.15 in 6.2 mi NNW 2.3 mph - N/A   Partly Cloudy
4:20 PM 60.8 °F 55.4 °F 82% 30.15 in 6.2 mi Variable 2.3 mph - N/A   Partly Cloudy
4:50 PM 60.8 °F 53.6 °F 77% 30.15 in 6.2 mi Variable 2.3 mph - N/A   Partly Cloudy
5:20 PM 57.2 °F 53.6 °F 88% 30.18 in 6.2 mi West 3.5 mph - N/A   Scattered Clouds
5:50 PM 57.2 °F 53.6 °F 88% 30.18 in 6.2 mi Variable 2.3 mph - N/A   Scattered Clouds
6:20 PM 57.2 °F 53.6 °F 88% 30.18 in 6.2 mi WNW 4.6 mph - N/A   Scattered Clouds
6:50 PM 59.0 °F 55.4 °F 88% 30.18 in 6.2 mi WNW 4.6 mph - N/A   Partly Cloudy
7:50 PM 57.2 °F 53.6 °F 88% 30.18 in 5.0 mi ENE 3.5 mph - N/A   Partly Cloudy
8:50 PM 55.4 °F 53.6 °F 94% 30.18 in 3.7 mi ENE 3.5 mph - N/A   Partly Cloudy
9:20 PM 55.4 °F 53.6 °F 94% 30.18 in 3.7 mi Variable 1.2 mph - N/A   Partly Cloudy
9:50 PM 55.4 °F 53.6 °F 94% 30.18 in 3.7 mi Calm Calm - N/A   Partly Cloudy
10:20 PM 53.6 °F 51.8 °F 94% 30.18 in 3.7 mi Variable 1.2 mph - N/A   Unknown
10:50 PM 51.8 °F 50.0 °F 94% 30.18 in 3.7 mi Calm Calm - N/A   Unknown
11:20 PM 51.8 °F 50.0 °F 94% 30.18 in 2.5 mi NNE 3.5 mph - N/A   Mist
11:50 PM 51.8 °F 50.0 °F 94% 30.18 in 1.9 mi NNW 1.2 mph - N/A   Mist